When you browse on this site, cookies collect data to enhance your experience and personalize the content and advertising you see.
Visit our Privacy Policy to learn more. By continuing to use the site, you agree to this use of cookies and data.
  • In Czech Republic
  • List of Countries
  • For 7 days
  • Water Temperature
  • Satellite Maps
  • Weather Map
  • Weather Widgets
  • user-avatar
    Login

    Hourly Weather Dmitrievskoe

    Today, 19 December, Wednesday

    Time Temperature Precipitation Wind Pressure Humidity
    00:00 -16°C° 0 mm 3 mps 736 mmHg 95%
    01:00 -16°C° 0 mm 3 mps 736 mmHg 95%
    02:00 -16°C° 0 mm 3 mps 736 mmHg 95%
    03:00 -16°C° 0 mm 3 mps 736 mmHg 95%
    04:00 -16°C° 0 mm 3 mps 736 mmHg 94%
    05:00 -16°C° 0 mm 3 mps 737 mmHg 94%
    06:00 -16°C° 0 mm 3 mps 737 mmHg 94%
    07:00 -15°C° 0 mm 3 mps 737 mmHg 93%
    08:00 -16°C° 0 mm 3 mps 738 mmHg 93%
    09:00 -15°C° 0 mm 2 mps 738 mmHg 94%
    10:00 -15°C° 0 mm 2 mps 738 mmHg 94%
    11:00 -14°C° 0 mm 2 mps 739 mmHg 93%
    12:00 -14°C° 0 mm 2 mps 739 mmHg 92%
    13:00 -11°C° 0 mm 1 mps 739 mmHg 90%
    14:00 -12°C° 0 mm 1 mps 740 mmHg 92%
    15:00 -13°C° 0 mm 1 mps 740 mmHg 94%
    16:00 -14°C° 0 mm 1 mps 740 mmHg 96%
    17:00 -14°C° 0 mm 1 mps 740 mmHg 96%
    18:00 -14°C° 0 mm 1 mps 741 mmHg 96%
    19:00 -15°C° 0 mm 1 mps 741 mmHg 97%
    20:00 -15°C° 0 mm 1 mps 741 mmHg 97%
    21:00 -15°C° 0 mm 1 mps 742 mmHg 97%
    22:00 -15°C° 0 mm 1 mps 742 mmHg 97%
    23:00 -15°C° 0 mm 1 mps 742 mmHg 97%

    Tomorrow, 20 December, Thursday

    Time Temperature Precipitation Wind Pressure Humidity
    00:00 -15°C° 0 mm 1 mps 742 mmHg 97%
    01:00 -15°C° 0 mm 1 mps 743 mmHg 97%
    02:00 -15°C° 0 mm 1 mps 743 mmHg 97%
    03:00 -16°C° 0 mm 1 mps 743 mmHg 97%
    04:00 -16°C° 0 mm 1 mps 743 mmHg 97%
    05:00 -16°C° 0 mm 1 mps 744 mmHg 96%
    06:00 -16°C° 0 mm 1 mps 744 mmHg 96%
    07:00 -17°C° 0 mm 0 mps 744 mmHg 96%
    08:00 -16°C° 0 mm 0 mps 744 mmHg 95%
    09:00 -16°C° 0 mm 0 mps 745 mmHg 95%
    10:00 -16°C° 0 mm 0 mps 745 mmHg 94%
    11:00 -15°C° 0 mm 0 mps 745 mmHg 93%
    12:00 -14°C° 0 mm 1 mps 745 mmHg 91%
    13:00 -13°C° 0 mm 1 mps 745 mmHg 89%
    14:00 -14°C° 0 mm 1 mps 744 mmHg 91%
    15:00 -15°C° 0 mm 1 mps 744 mmHg 93%
    16:00 -16°C° 0 mm 1 mps 744 mmHg 96%
    17:00 -16°C° 0 mm 1 mps 744 mmHg 96%
    18:00 -16°C° 0 mm 1 mps 744 mmHg 96%
    19:00 -17°C° 0 mm 1 mps 743 mmHg 96%
    20:00 -17°C° 0 mm 1 mps 743 mmHg 95%
    21:00 -17°C° 0 mm 1 mps 743 mmHg 95%
    22:00 -17°C° 0 mm 1 mps 743 mmHg 94%
    23:00 -19°C° 0 mm 2 mps 742 mmHg 94%

    Day after tomorrow, 21 December, Friday

    Time Temperature Precipitation Wind Pressure Humidity
    00:00 -19°C° 0 mm 2 mps 742 mmHg 94%
    01:00 -19°C° 0 mm 2 mps 742 mmHg 93%
    02:00 -19°C° 0 mm 2 mps 741 mmHg 94%
    03:00 -19°C° 0 mm 2 mps 741 mmHg 94%
    04:00 -19°C° 0 mm 2 mps 741 mmHg 95%
    05:00 -19°C° 0 mm 2 mps 741 mmHg 95%
    06:00 -19°C° 0 mm 2 mps 740 mmHg 95%
    07:00 -19°C° 0 mm 2 mps 740 mmHg 95%
    08:00 -19°C° 0 mm 2 mps 740 mmHg 95%
    09:00 -19°C° 0 mm 2 mps 740 mmHg 95%
    10:00 -22°C° 0 mm 3 mps 740 mmHg 94%
    11:00 -21°C° 0 mm 3 mps 739 mmHg 93%
    12:00 -21°C° 0 mm 3 mps 739 mmHg 91%
    13:00 -19°C° 0 mm 3 mps 738 mmHg 90%
    14:00 -21°C° 0 mm 3 mps 738 mmHg 91%
    15:00 -21°C° 0 mm 3 mps 738 mmHg 92%
    16:00 -21°C° 0 mm 3 mps 737 mmHg 94%
    17:00 -21°C° 0 mm 3 mps 737 mmHg 93%
    18:00 -21°C° 0 mm 3 mps 737 mmHg 93%
    19:00 -21°C° 0 mm 3 mps 736 mmHg 93%
    20:00 -21°C° 0 mm 3 mps 736 mmHg 93%
    21:00 -21°C° 0 mm 3 mps 736 mmHg 93%
    22:00 -21°C° 0 mm 3 mps 735 mmHg 93%
    23:00 -21°C° 0 mm 3 mps 735 mmHg 93%

    22 December, Saturday

    Time Temperature Precipitation Wind Pressure Humidity
    00:00 -21°C° 0 mm 3 mps 734 mmHg 93%
    01:00 -21°C° 0 mm 3 mps 734 mmHg 93%
    02:00 -21°C° 0.1 mm 3 mps 734 mmHg 93%
    03:00 -19°C° 0.1 mm 3 mps 733 mmHg 93%
    04:00 -19°C° 0.1 mm 3 mps 733 mmHg 93%
    05:00 -19°C° 0.1 mm 3 mps 733 mmHg 93%
    06:00 -19°C° 0.1 mm 3 mps 733 mmHg 93%
    07:00 -19°C° 0.1 mm 3 mps 733 mmHg 93%
    08:00 -19°C° 0 mm 3 mps 733 mmHg 93%
    09:00 -19°C° 0 mm 3 mps 733 mmHg 93%
    10:00 -21°C° 0 mm 3 mps 733 mmHg 93%
    11:00 -19°C° 0 mm 3 mps 733 mmHg 91%
    12:00 -19°C° 0 mm 3 mps 733 mmHg 90%
    13:00 -18°C° 0 mm 2 mps 733 mmHg 89%
    14:00 -19°C° 0 mm 2 mps 733 mmHg 91%
    15:00 -20°C° 0 mm 2 mps 734 mmHg 94%
    16:00 -19°C° 0 mm 1 mps 734 mmHg 96%
    17:00 -19°C° 0 mm 1 mps 734 mmHg 96%
    18:00 -19°C° 0 mm 1 mps 734 mmHg 96%
    19:00 -20°C° 0 mm 1 mps 734 mmHg 96%
    20:00 -20°C° 0 mm 1 mps 735 mmHg 96%
    21:00 -20°C° 0 mm 0 mps 735 mmHg 96%
    22:00 -20°C° 0 mm 0 mps 735 mmHg 95%
    23:00 -20°C° 0 mm 0 mps 735 mmHg 95%

    23 December, Sunday

    Time Temperature Precipitation Wind Pressure Humidity
    00:00 -20°C° 0 mm 0 mps 735 mmHg 95%
    01:00 -20°C° 0 mm 1 mps 736 mmHg 95%
    02:00 -19°C° 0 mm 1 mps 736 mmHg 95%
    03:00 -19°C° 0 mm 1 mps 736 mmHg 96%
    04:00 -19°C° 0 mm 1 mps 736 mmHg 96%
    05:00 -19°C° 0 mm 1 mps 736 mmHg 96%
    06:00 -19°C° 0 mm 1 mps 736 mmHg 96%
    07:00 -21°C° 0 mm 2 mps 736 mmHg 96%
    08:00 -21°C° 0 mm 2 mps 736 mmHg 95%
    09:00 -21°C° 0 mm 2 mps 737 mmHg 95%
    10:00 -21°C° 0 mm 2 mps 737 mmHg 94%
    11:00 -20°C° 0 mm 2 mps 737 mmHg 92%
    12:00 -20°C° 0 mm 2 mps 737 mmHg 91%
    13:00 -19°C° 0 mm 2 mps 737 mmHg 89%
    14:00 -20°C° 0 mm 2 mps 737 mmHg 90%
    15:00 -22°C° 0 mm 3 mps 737 mmHg 92%
    16:00 -23°C° 0 mm 3 mps 737 mmHg 94%
    17:00 -23°C° 0 mm 3 mps 737 mmHg 94%
    18:00 -23°C° 0 mm 3 mps 737 mmHg 94%
    19:00 -23°C° 0 mm 3 mps 737 mmHg 94%
    20:00 -24°C° 0 mm 3 mps 737 mmHg 94%
    21:00 -24°C° 0 mm 3 mps 737 mmHg 94%
    22:00 -24°C° 0 mm 3 mps 737 mmHg 94%
    23:00 -24°C° 0 mm 3 mps 737 mmHg 94%

    24 December, Monday

    Time Temperature Precipitation Wind Pressure Humidity
    00:00 -24°C° 0 mm 3 mps 737 mmHg 94%
    01:00 -24°C° 0 mm 3 mps 736 mmHg 94%
    02:00 -24°C° 0 mm 2 mps 736 mmHg 94%
    03:00 -24°C° 0 mm 2 mps 736 mmHg 94%
    04:00 -24°C° 0 mm 2 mps 736 mmHg 95%
    05:00 -24°C° 0 mm 2 mps 736 mmHg 94%
    06:00 -25°C° 0 mm 3 mps 736 mmHg 94%
    07:00 -25°C° 0 mm 3 mps 736 mmHg 94%
    08:00 -25°C° 0 mm 3 mps 735 mmHg 93%
    09:00 -24°C° 0 mm 3 mps 735 mmHg 92%
    10:00 -24°C° 0 mm 3 mps 735 mmHg 92%
    11:00 -23°C° 0 mm 3 mps 735 mmHg 90%
    12:00 -22°C° 0 mm 3 mps 735 mmHg 88%
    13:00 -21°C° 0 mm 3 mps 735 mmHg 86%
    14:00 -22°C° 0 mm 3 mps 735 mmHg 87%
    15:00 -22°C° 0 mm 3 mps 734 mmHg 89%
    16:00 -22°C° 0 mm 3 mps 734 mmHg 90%
    17:00 -22°C° 0 mm 3 mps 734 mmHg 90%
    18:00 -23°C° 0 mm 3 mps 734 mmHg 91%
    19:00 -23°C° 0 mm 3 mps 734 mmHg 91%
    20:00 -23°C° 0 mm 3 mps 733 mmHg 90%
    21:00 -23°C° 0 mm 3 mps 733 mmHg 90%
    22:00 -23°C° 0 mm 3 mps 733 mmHg 90%
    23:00 -22°C° 0 mm 3 mps 733 mmHg 90%
    Show more